Weather in Mayka

Russia / Tyumen Oblast     55°36′34″N   70°29′43″E
temp.,
°C
wind,
m/s
gust,
m/s
humid.,
%
clouds,
%
prec.,
mm/h
press.,
hPa
HPBL,
m
25 october, mon
mon2523:00+11sw91652100 0.3 1010898
02:00+11sw91535100 0.0 1009970
05:00+10wsw81463100 0.0 10101176
08:00+6w511805 0.0 1012655
11:00+8w7115998 0.0 10131064
14:00+10w5747100 0.0 10141209
17:00+8wsw2251100 0.0 101326
20:00+7sse2458100 0.0 101283
26 october, tue
tue2623:00+7se3887100 1.2 1008416
02:00+7ssw61077100 0.1 1005883
05:00+2nw51098100 0.9 1005373
08:00+3wnw6118396 0.3 1006955
11:00+2wnw9139199 0.4 1008934
14:00+2nw913535 0.1 10121472
17:000wnw711585 0.1 10171021
20:00−1wnw511665 0.0 1020596
27 october, wed
wed2723:00−2wsw410745 0.0 1022339
02:00−3sw497734 0.0 1022255
05:00−2sw4107184 0.0 1023348
08:00−1wsw6107496 0.0 1023633
11:00+1wsw6106271 0.1 1023934
14:00+3wsw685893 0.0 10221146
17:00+2wsw3765100 0.0 1022424
20:00+2sw3768100 0.0 1023272
28 october, thu
thu2823:000ssw367662 0.0 1022122
02:00−1ssw3671100 0.0 1021163
05:000ssw4963100 0.0 1020285
08:00−1ssw51063100 0.0 1018313
11:00+2ssw71155100 0.0 1016520
14:00+4ssw61152100 0.0 1014767
17:00+3ssw71355100 0.0 1012655
20:00+4sw81552100 0.0 1010882
29 october, fri
fri2923:00+3sw8146480 0.0 1008966
02:00+3wsw81464100 0.0 1008861
05:00+3wsw9157096 0.0 1008949
08:00+3wsw81487100 0.1 1009948
11:00+4wsw81376100 0.2 1010979
14:00+5sw71171100 0.0 10111073
17:00+4sw71272100 0.0 1011830
20:00+3sw61387100 0.1 1010801